TimeCST,TemperatureF,Dew PointF,Humidity,Sea Level PressureIn,VisibilityMPH,Wind Direction,Wind SpeedMPH,Gust SpeedMPH,PrecipitationIn,Events,Conditions,WindDirDegrees,DateUTC
12:55 AM,24.8,17.6,74,30.28,10.0,East,3.5,-,N/A,,Partly Cloudy,100,2013-02-02 06:55:00
1:55 AM,26.6,19.4,74,30.26,10.0,East,3.5,-,N/A,,Mostly Cloudy,100,2013-02-02 07:55:00
2:15 AM,28.4,19.4,69,30.25,10.0,East,3.5,-,N/A,,Partly Cloudy,100,2013-02-02 08:15:00
2:35 AM,28.4,19.4,69,30.25,10.0,Calm,Calm,-,N/A,,Mostly Cloudy,0,2013-02-02 08:35:00
2:55 AM,28.4,17.6,64,30.26,10.0,Calm,Calm,-,N/A,,Overcast,0,2013-02-02 08:55:00
3:15 AM,28.4,17.6,64,30.25,10.0,Calm,Calm,-,N/A,,Mostly Cloudy,0,2013-02-02 09:15:00
3:35 AM,30.2,17.6,60,30.24,10.0,Calm,Calm,-,N/A,,Mostly Cloudy,0,2013-02-02 09:35:00
3:55 AM,28.4,17.6,64,30.24,10.0,Calm,Calm,-,N/A,,Mostly Cloudy,0,2013-02-02 09:55:00
4:15 AM,30.2,17.6,60,30.24,10.0,Calm,Calm,-,N/A,,Overcast,0,2013-02-02 10:15:00
4:35 AM,30.2,21.2,69,30.25,10.0,Calm,Calm,-,N/A,,Overcast,0,2013-02-02 10:35:00
4:55 AM,30.2,23.0,75,30.26,10.0,North,3.5,-,N/A,,Overcast,350,2013-02-02 10:55:00
6:55 AM,30.2,24.8,80,30.25,10.0,ESE,3.5,-,N/A,,Overcast,110,2013-02-02 12:55:00
7:55 AM,28.4,24.8,86,30.24,10.0,SE,6.9,-,N/A,,Mostly Cloudy,130,2013-02-02 13:55:00
8:55 AM,35.6,24.8,65,30.23,10.0,SSE,5.8,-,N/A,,Scattered Clouds,150,2013-02-02 14:55:00
9:55 AM,39.2,26.6,61,30.22,10.0,SSW,4.6,-,N/A,,Mostly Cloudy,200,2013-02-02 15:55:00
10:55 AM,42.8,30.2,61,30.21,10.0,WSW,8.1,-,N/A,,Overcast,240,2013-02-02 16:55:00
11:55 AM,44.6,30.2,57,30.20,10.0,WSW,8.1,-,N/A,,Mostly Cloudy,240,2013-02-02 17:55:00
12:55 PM,44.6,30.2,57,30.17,10.0,West,6.9,-,N/A,,Mostly Cloudy,260,2013-02-02 18:55:00
1:55 PM,46.4,30.2,53,30.17,10.0,West,9.2,-,N/A,,Mostly Cloudy,280,2013-02-02 19:55:00
2:55 PM,50.0,33.8,54,30.15,10.0,West,10.4,-,N/A,,Scattered Clouds,270,2013-02-02 20:55:00
3:55 PM,50.0,35.6,58,30.16,10.0,WNW,8.1,-,N/A,,Scattered Clouds,290,2013-02-02 21:55:00
4:55 PM,48.2,35.6,62,30.16,10.0,West,4.6,-,N/A,,Clear,280,2013-02-02 22:55:00
5:55 PM,44.6,33.8,66,30.17,10.0,Calm,Calm,-,N/A,,Clear,0,2013-02-02 23:55:00
6:55 PM,42.8,33.8,70,30.19,10.0,Calm,Calm,-,N/A,,Clear,0,2013-02-03 00:55:00
7:55 PM,39.2,33.8,81,30.18,10.0,South,4.6,-,N/A,,Clear,180,2013-02-03 01:55:00
8:55 PM,39.2,33.8,81,30.19,10.0,Calm,Calm,-,N/A,,Clear,0,2013-02-03 02:55:00
9:55 PM,39.2,33.8,81,30.19,10.0,Calm,Calm,-,N/A,,Clear,0,2013-02-03 03:55:00
10:55 PM,39.2,33.8,81,30.18,10.0,Calm,Calm,-,N/A,,Clear,0,2013-02-03 04:55:00
11:55 PM,37.4,33.8,87,30.16,10.0,SSW,3.5,-,N/A,,Clear,200,2013-02-03 05:55:00